Manila, Philippines

9:09 AM +08 on May 25, 2018 (GMT +0800)
Ninoy Aquino International

Weather History for RPLL - February, 2018

Change the Weather History Date:

Tuesday, February 13, 2018

  Actual Average Record
Temperature  
Mean Temperature 82 °F -  
Max Temperature 88 °F 86 °F 91 °F (1998)
Min Temperature 77 °F 73 °F 70 °F (2014)
Cooling Degree Days 18    
Growing Degree Days 32 (Base 50)    
Moisture  
Dew Point 69 °F    
Average Humidity 66    
Maximum Humidity 94    
Minimum Humidity 42    
Precipitation  
Precipitation 0.00 in 0.01 in - ()
Sea Level Pressure  
Sea Level Pressure 29.96 in    
Wind  
Wind Speed 5 mph ()    
Max Wind Speed 17 mph    
Max Gust Speed -    
Visibility 6.2 miles    
Events      
Averages and records for this station are not official NWS values.
T = Trace of Precipitation, MM = Missing Value Source: Averaged Metar Reports

Daily Weather History Graph

Daily Weather History Graph

Search for Another Location

Airport or City:

Astronomy

Feb. 13, 2018 Rise Set
Actual Time 6:20 AM +08 5:59 PM +08
Civil Twilight 5:59 AM +08 6:21 PM +08
Nautical Twilight 5:33 AM +08 6:46 PM +08
Astronomical Twilight 5:08 AM +08 7:12 PM +08
Moon 4:13 AM +08 (2/13) 3:53 PM +08 (2/13)
Length of Visible Light 12h 22m
Length of Day
11h 38m
Waning Crescent, 7% of the Moon is Illuminated
Feb 13
Waning Crescent
Feb 16
New
Feb 23
First Quarter
Mar 2
Full
Mar 9
Last Quarter

Hourly Weather History & Observations

Time (+08) Temp. Heat Index Dew Point Humidity Pressure Visibility Wind Dir Wind Speed Gust Speed Precip Events Conditions
12:00 AM 78.8 °F - 77.0 °F 94% 29.98 in 6.2 mi ENE 5.8 mph - N/A   Scattered Clouds
1:00 AM 78.8 °F - 71.6 °F 78% 29.94 in 6.2 mi ENE 2.3 mph - N/A   Mostly Cloudy
2:00 AM 78 °F - 73 °F 80% 29.95 in 6 mi Calm Calm - -   Haze
2:00 AM 78.8 °F - 73.4 °F 83% 29.95 in 6.2 mi NE 1.2 mph - N/A   Mostly Cloudy
3:00 AM 78.8 °F - 68.0 °F 69% 29.95 in 6.2 mi Calm Calm - N/A   Mostly Cloudy
4:00 AM 78.8 °F - 73.4 °F 83% 29.95 in 6.2 mi Calm Calm - N/A   Mostly Cloudy
5:00 AM 79 °F - 70 °F 68% 29.95 in 6 mi North 2.2 mph - -   Haze
5:00 AM 78.8 °F - 69.8 °F 74% 29.95 in 6.2 mi Variable 1.2 mph - N/A   Mostly Cloudy
6:00 AM 78.8 °F - 69.8 °F 74% 29.98 in 6.2 mi Variable 2.3 mph - N/A   Partly Cloudy
7:00 AM 77.0 °F - 71.6 °F 83% 29.98 in 6.2 mi Calm Calm - N/A   Partly Cloudy
8:00 AM 82 °F - 69 °F 57% 30.00 in 6 mi ENE 2.2 mph - -   Haze
8:00 AM 82.4 °F 86.3 °F 69.8 °F 66% 30.01 in 6.2 mi Variable 2.3 mph - N/A   Scattered Clouds
9:00 AM 82.4 °F 86.3 °F 69.8 °F 66% 30.01 in 6.2 mi ENE 6.9 mph - N/A   Scattered Clouds
10:00 AM 84.2 °F 86.6 °F 66.2 °F 55% 30.01 in 6.2 mi ENE 12.7 mph - N/A   Mostly Cloudy
11:00 AM 85 °F - 65 °F 42% 29.99 in 6 mi ENE 13.4 mph - -   Haze
11:00 AM 86.0 °F 88.2 °F 66.2 °F 51% 29.98 in 6.2 mi ENE 13.8 mph - N/A   Mostly Cloudy
12:00 PM 86.0 °F 88.2 °F 66.2 °F 51% 29.98 in 6.2 mi ENE 12.7 mph - N/A   Mostly Cloudy
1:00 PM 87.8 °F 90.4 °F 66.2 °F 49% 29.95 in 6.2 mi ENE 17.3 mph - N/A   Mostly Cloudy
2:00 PM 85 °F - 68 °F 47% 29.92 in 6 mi ENE 13.4 mph - -   Haze
2:00 PM 86.0 °F 89.4 °F 68.0 °F 55% 29.92 in 6.2 mi ENE 12.7 mph - N/A   Mostly Cloudy
3:00 PM 86.0 °F 88.2 °F 66.2 °F 51% 29.92 in 6.2 mi ENE 15.0 mph - N/A   Mostly Cloudy
4:00 PM 86.0 °F 88.2 °F 66.2 °F 51% 29.92 in 6.2 mi ENE 12.7 mph - N/A   Mostly Cloudy
5:00 PM 83 °F - 67 °F 50% 29.92 in 6 mi ENE 11.2 mph - -   Haze
5:00 PM 82.4 °F 85.4 °F 68.0 °F 62% 29.92 in 6.2 mi ENE 12.7 mph - N/A   Mostly Cloudy
6:00 PM 80.6 °F 83.9 °F 69.8 °F 70% 29.95 in 6.2 mi ENE 8.1 mph - N/A   Mostly Cloudy
7:00 PM 78.8 °F - 69.8 °F 74% 29.95 in 6.2 mi Calm Calm - N/A   Scattered Clouds
8:00 PM 79 °F - 70 °F 68% 29.97 in 6 mi Calm Calm - -   Haze
8:00 PM 78.8 °F - 69.8 °F 74% 29.98 in 6.2 mi Calm Calm - N/A   Scattered Clouds
9:00 PM 78.8 °F - 71.6 °F 78% 29.98 in 6.2 mi ENE 1.2 mph - N/A   Mostly Cloudy
10:00 PM 78.8 °F - 69.8 °F 74% 29.98 in 6.2 mi Variable 2.3 mph - N/A   Mostly Cloudy
11:00 PM 80 °F - 67 °F 56% 29.99 in 6 mi East 6.7 mph - -   Haze
11:00 PM 80.6 °F 83.2 °F 68.0 °F 65% 29.98 in 6.2 mi East 8.1 mph - N/A   Scattered Clouds